Temp
33 33 32 32 31 31 30 30 30 29 29 29 28 28 28 28 27 27 26 26 25 25 25 25 25 25 25 25 25 24 24 24 24 24 25 25 25 25 25 25 25 25 25 25 24 24 24 24 24 23 23 23 23 23 23 24 24 23 23 23 23 23 23
33 33 33 32 32 31 30 30 30 30 30 29 29 29 28 28 27 27 26 26 26 25 25 25 25 25 25 25 24 24 24 24 24 24 24 24 25 25 25 25 25 25 25 25 25 25 24 24 24 23 23 23 23 23 23 24 24 23 23 23 23 23 23
33 33 33 32 32 32 31 30 30 30 30 29 29 29 28 28 28 27 27 26 26 25 25 25 25 25 25 25 24 24 24 24 24 24 24 24 24 25 25 25 25 25 25 25 25 25 24 24 24 23 23 23 23 23 23 24 24 23 23 23 23 23 23
34 33 33 33 32 32 31 31 30 30 30 30 29 29 29 28 28 28 27 26 26 26 25 25 25 25 25 25 25 24 24 24 24 24 24 24 24 25 25 25 25 25 25 25 25 25 25 24 24 23 23 23 23 23 23 24 24 23 23 23 23 23 23
34 34 33 33 33 32 32 31 30 30 30 30 30 29 29 29 28 28 27 27 26 26 26 25 25 25 25 25 25 24 24 24 24 24 24 24 24 25 25 25 25 25 25 25 25 25 25 24 24 23 23 23 23 23 24 24 24 24 23 23 23 23 23
34 34 33 33 33 32 32 32 31 31 31 30 30 29 29 29 28 28 27 27 27 26 26 26 25 25 25 25 25 25 25 24 24 24 24 24 24 24 24 25 25 25 25 25 25 25 25 24 24 23 23 23 23 24 24 24 24 24 23 23 23 23 22
34 34 34 33 33 33 32 32 31 31 31 31 30 30 29 29 28 28 27 27 27 26 26 26 25 25 25 25 25 25 25 24 24 24 24 24 24 24 24 24 25 25 25 25 25 25 25 24 24 24 23 23 23 24 24 24 24 23 23 23 23 23 22
35 35 35 34 34 33 33 32 32 31 31 31 30 30 29 29 29 28 28 27 27 26 26 26 25 25 25 25 25 25 25 25 24 24 24 24 24 24 24 24 25 25 25 25 25 25 24 24 24 24 23 23 23 23 24 24 24 23 23 23 23 22 22
35 35 35 35 34 34 33 33 32 31 31 30 30 30 29 29 29 29 28 28 27 27 26 26 26 25 25 25 25 25 25 25 24 24 24 24 24 24 24 24 24 25 25 25 25 24 24 24 24 24 23 23 23 23 24 24 24 23 23 23 23 23 22
35 35 35 35 35 34 34 33 32 31 30 30 30 29 29 29 29 29 29 28 27 27 27 26 26 26 25 25 25 25 25 25 25 24 24 24 24 24 24 24 24 25 25 25 24 24 24 24 24 24 23 23 23 23 23 24 24 23 23 23 23 23 22
35 35 35 35 35 34 34 33 32 31 30 30 29 29 29 29 29 29 29 28 28 27 27 27 26 26 26 25 25 25 25 25 25 24 24 24 24 24 24 24 24 25 25 24 24 24 24 24 24 24 23 23 23 23 23 23 24 23 23 23 23 23 22
35 35 35 34 35 34 34 33 32 31 30 29 29 29 29 29 29 29 29 29 28 28 27 27 27 26 26 25 25 25 25 25 25 25 25 24 24 24 24 24 24 24 24 24 24 24 24 24 24 24 24 24 23 23 23 23 23 23 23 23 23 22 22
35 35 34 34 34 34 33 32 31 31 30 29 29 30 29 29 29 29 29 29 29 28 28 27 27 27 26 26 25 25 25 25 25 25 25 25 25 25 25 25 24 24 24 24 24 24 24 24 24 24 24 24 23 23 23 23 23 23 23 23 23 22 22
34 34 34 34 34 33 33 32 31 31 30 30 29 30 30 30 30 30 29 29 29 29 28 28 27 27 26 26 26 25 25 25 25 25 25 25 25 25 25 25 25 25 24 24 24 24 24 24 24 23 23 23 23 23 23 23 22 23 23 23 23 23 22
35 34 34 34 34 33 32 31 31 31 30 30 30 29 30 30 29 30 30 29 29 29 29 28 27 27 27 26 26 26 26 25 25 25 25 25 25 25 25 25 25 25 24 24 24 24 24 24 23 23 23 23 23 23 22 22 22 22 23 23 23 23 22
35 34 34 34 33 33 32 32 31 31 30 30 30 29 29 29 29 30 30 30 30 29 29 28 28 27 27 26 26 26 26 26 25 25 25 25 25 25 25 25 25 25 24 24 24 24 24 23 23 23 23 23 23 22 22 22 22 22 23 23 23 23 22
33 34 34 33 33 32 32 32 31 30 30 30 30 29 29 29 30 30 30 30 30 30 29 29 28 28 27 27 26 26 26 26 26 25 25 25 25 25 25 25 25 24 24 24 24 24 24 23 23 23 23 23 23 22 22 22 22 22 23 23 23 23 22
32 33 33 32 32 32 32 31 30 30 30 30 30 29 30 30 30 30 30 30 30 30 30 29 28 28 27 27 27 26 26 26 26 25 25 25 25 25 25 25 25 24 24 24 24 24 24 23 23 23 23 23 23 22 22 22 22 22 22 23 23 22 22
33 33 33 33 33 32 32 31 31 30 30 30 30 30 30 30 30 30 30 30 30 30 30 29 29 28 28 27 27 27 26 26 26 26 25 25 25 25 25 25 25 24 24 24 24 24 24 23 23 23 23 23 23 22 22 22 22 22 22 23 22 22 22
33 33 33 33 32 32 32 32 31 31 30 30 30 31 31 31 30 30 31 30 30 30 30 30 29 29 28 28 27 27 27 26 26 26 26 25 25 25 25 25 25 24 24 24 24 24 24 23 23 23 23 23 23 23 22 22 22 22 22 22 22 21 21
32 33 33 32 32 32 32 32 32 31 30 30 31 31 31 31 31 31 31 30 30 30 30 30 29 29 28 28 27 27 27 26 26 26 26 26 25 25 25 25 25 25 25 25 24 24 24 24 24 23 23 23 23 23 22 22 22 22 22 22 22 21 21
34 33 33 32 32 33 33 33 32 31 30 30 31 31 31 31 31 31 31 31 30 30 30 30 29 29 29 28 28 27 27 27 26 26 26 26 25 25 25 25 25 25 25 25 24 24 24 24 24 24 23 23 23 23 22 22 22 22 22 22 21 21 20
34 35 35 34 32 32 32 32 32 31 31 31 31 31 31 31 31 31 31 31 30 30 30 30 29 29 29 28 28 28 27 27 27 26 26 26 26 25 25 25 25 25 25 25 24 24 24 24 24 24 23 23 23 22 22 22 22 22 21 21 21 21 20
31 32 34 34 34 33 32 31 32 32 32 31 31 31 31 32 31 31 30 30 30 30 30 29 29 29 29 29 28 28 28 27 27 27 26 26 26 25 25 25 25 25 25 25 24 24 24 24 24 23 23 23 23 23 22 22 22 22 21 21 21 21 20
28 29 30 30 31 32 31 31 32 32 31 31 30 31 31 31 31 31 30 30 30 30 29 29 30 30 29 29 29 28 28 28 27 27 27 26 26 26 25 25 25 25 25 25 24 24 24 24 24 23 23 23 23 23 22 22 22 21 21 21 21 21 20
25 26 26 26 26 27 29 31 31 31 30 30 31 31 31 31 31 30 30 30 30 30 30 30 30 30 30 30 29 29 28 28 28 27 27 26 26 26 26 26 25 25 25 24 24 24 24 24 23 23 23 23 23 22 22 22 22 21 21 21 21 21 21
23 23 24 24 24 24 26 28 30 30 30 31 31 31 31 31 30 30 30 30 30 30 30 30 30 31 31 30 30 29 28 28 28 28 27 27 26 26 26 26 25 25 24 24 24 24 24 23 23 23 23 22 22 22 22 22 22 22 21 21 21 21 21
22 23 22 22 22 23 23 24 26 26 27 29 30 30 31 31 30 30 30 29 29 30 31 31 31 31 31 30 30 29 29 28 28 28 27 27 26 26 26 26 25 25 24 24 24 24 23 23 23 23 22 22 22 22 22 22 22 22 22 22 22 21 21
21 22 22 21 21 21 22 22 22 21 23 27 29 29 30 30 29 29 29 28 28 30 30 30 30 30 30 30 30 29 29 28 28 28 27 27 26 26 26 25 25 24 24 24 23 23 22 22 22 22 22 22 22 22 22 22 22 23 22 22 22 22 21
20 20 20 20 20 20 20 21 21 20 22 26 28 28 29 28 26 24 24 25 28 30 30 30 31 31 30 30 29 29 28 28 27 27 27 26 26 26 25 24 24 23 23 23 22 21 21 21 21 21 21 21 21 21 22 22 23 23 23 22 22 22 21
20 19 20 20 19 20 20 20 20 20 20 22 25 27 29 28 26 22 20 23 26 29 30 30 30 30 29 29 28 28 27 27 26 26 26 26 25 25 24 23 22 22 22 22 21 21 21 20 20 20 21 21 20 21 22 22 22 22 22 22 22 22 21
19 19 19 19 19 19 19 19 19 20 20 20 20 22 25 28 28 25 23 24 26 26 27 29 28 28 27 27 27 26 26 25 25 25 25 24 24 23 23 22 22 22 22 21 20 20 21 20 20 20 21 20 20 21 22 22 22 22 22 22 22 21 20
19 19 19 19 19 19 19 19 19 20 20 20 19 20 21 23 26 26 26 27 27 25 25 25 25 25 26 25 25 25 25 24 23 23 23 22 22 22 22 22 23 22 21 20 20 20 20 19 19 20 20 20 20 21 21 21 21 21 22 21 21 21 19
20 19 19 19 19 19 19 19 20 20 20 19 19 20 20 21 22 23 24 25 25 24 23 23 22 23 23 23 23 23 23 23 22 21 21 21 22 22 22 23 22 21 20 20 20 20 19 19 20 20 20 20 20 20 20 20 21 21 21 21 21 20 19
19 19 19 19 19 19 19 19 19 20 20 19 19 19 20 20 21 21 22 22 22 23 22 21 21 21 21 21 21 21 21 21 21 21 20 20 21 22 21 21 21 20 20 21 21 20 20 20 21 21 21 21 20 20 19 19 20 21 21 21 21 20 20
19 19 19 19 19 19 19 20 20 20 19 19 19 19 19 19 19 20 21 21 21 22 21 21 21 21 21 21 21 20 20 20 19 19 18 18 18 18 18 18 19 20 20 20 21 21 22 22 22 22 22 21 21 22 21 21 21 22 22 21 21 21 21
19 19 19 19 19 19 19 19 20 20 20 20 20 19 19 19 19 20 20 20 21 21 21 21 21 20 21 21 21 21 20 18 17 17 17 17 17 17 16 17 18 19 21 21 22 22 22 23 23 23 22 22 22 22 22 23 23 22 22 21 21 21 21
18 19 19 18 19 19 19 19 19 19 19 19 19 20 20 19 19 19 20 20 21 21 21 21 21 20 20 20 20 20 19 18 18 18 17 17 18 18 18 18 17 17 19 21 22 22 22 22 22 22 22 23 23 23 23 23 23 22 22 22 21 21 21
Height
692 694 696 698 700 703 705 706 709 711 714 718 721 725 729 733 737 740 744 747 751 754 758 761 765 768 770 772 775 777 780 782 783 783 784 786 788 791 793 795 797 799 800 802 804 805 807 809 811 813 815 817 818 820 822 823 824 825 826 827 828 830 831
690 690 691 693 695 697 699 699 702 705 708 712 715 720 724 727 731 734 738 742 745 749 753 756 760 763 765 768 770 772 775 777 779 781 782 783 786 788 790 792 794 795 797 799 801 803 805 807 808 810 812 814 816 818 819 820 821 823 824 826 827 829 830
686 686 685 687 689 691 693 694 697 699 702 706 710 714 718 720 723 727 732 736 741 745 749 753 756 759 762 765 767 768 770 773 775 777 779 780 782 784 787 789 790 792 794 796 799 800 802 804 806 808 810 812 814 815 817 818 819 821 822 824 826 827 829
680 680 680 681 682 683 685 688 691 693 697 700 703 706 709 713 718 723 727 731 735 740 744 748 751 755 758 760 763 764 765 768 771 774 776 778 780 782 784 786 787 789 791 793 796 797 799 801 803 805 807 809 811 813 814 816 817 819 821 823 824 826 827
675 675 677 679 678 680 681 683 686 688 691 694 697 700 704 709 715 720 724 727 731 734 737 742 746 750 754 756 758 759 760 763 767 770 773 775 777 779 780 782 784 786 788 790 792 794 796 798 800 802 804 806 808 810 812 814 816 818 819 820 822 824 825
672 672 674 675 675 676 677 677 679 681 685 688 692 697 702 708 713 716 720 724 727 731 734 738 742 745 749 751 753 755 757 760 763 767 770 772 774 776 777 779 781 782 785 787 789 791 793 795 797 799 800 802 805 808 810 812 814 815 817 818 820 821 823
665 666 667 668 669 671 671 672 673 675 680 684 689 695 700 704 709 712 716 720 723 727 730 734 737 740 743 745 748 751 753 756 759 763 766 769 771 772 773 776 777 779 782 783 785 787 789 791 793 795 797 799 802 805 807 809 811 813 814 815 817 818 820
656 658 660 661 661 663 665 667 669 672 677 682 687 691 695 699 704 708 712 715 719 722 725 728 731 734 738 740 743 746 749 752 755 759 762 765 767 768 770 773 774 776 779 780 781 783 785 787 789 791 794 797 800 802 804 806 808 810 811 812 814 815 817
650 651 652 653 653 655 658 660 663 667 672 678 682 686 690 695 699 703 706 710 714 717 719 722 726 729 733 736 738 742 745 749 752 755 758 760 762 764 766 769 771 773 774 776 778 780 781 783 785 788 791 794 797 799 801 803 805 806 808 809 811 813 814
647 648 647 647 648 650 652 655 660 665 670 674 677 681 686 690 694 698 702 706 708 711 714 718 722 725 728 731 734 738 741 744 747 751 754 756 758 760 762 765 767 769 770 772 775 776 778 780 782 785 788 791 793 795 797 800 801 804 805 807 809 811 812
643 644 643 644 646 648 651 655 659 664 666 669 672 676 681 685 690 693 697 701 703 707 711 715 718 721 724 727 730 734 737 740 743 746 748 751 753 755 758 761 763 765 767 769 771 773 775 777 780 782 785 786 789 791 794 796 799 801 803 805 807 809 811
638 639 641 643 644 647 650 653 657 660 661 664 668 672 676 680 685 689 692 696 700 704 709 712 715 718 720 723 726 729 732 735 738 740 743 746 749 751 754 757 759 761 763 765 767 770 772 774 777 778 780 783 785 788 791 794 797 799 800 803 805 807 809
634 635 637 639 640 644 647 651 654 656 658 661 664 667 671 675 679 684 688 692 696 701 705 709 712 715 717 719 722 724 727 729 731 733 737 740 743 747 750 753 755 757 760 762 764 767 769 771 773 775 778 781 783 787 789 792 795 797 799 801 803 805 806
635 634 634 634 637 641 645 649 651 653 656 658 661 665 667 671 675 678 683 688 692 698 702 705 709 711 713 715 717 719 720 723 726 728 732 736 739 744 747 749 752 754 757 760 762 764 766 768 771 774 777 780 782 785 787 790 792 794 796 799 801 802 803
635 636 636 636 637 639 641 645 647 649 652 653 657 661 664 668 672 675 680 684 688 692 696 700 704 706 709 711 712 713 715 718 721 724 727 732 736 740 743 746 749 753 756 758 760 763 765 768 770 773 776 779 781 783 785 787 789 791 793 795 797 798 800
631 632 634 635 636 636 637 639 641 644 647 650 654 658 661 665 669 672 676 679 683 687 690 694 698 701 704 706 705 707 711 715 718 720 724 728 731 735 739 743 748 751 754 757 760 762 765 768 770 773 775 777 778 781 783 785 786 788 790 791 793 795 796
627 629 630 632 633 634 635 636 639 641 644 648 650 653 657 660 663 667 671 676 680 682 685 689 693 696 698 699 700 704 708 711 713 717 720 723 727 732 737 742 746 750 754 757 760 762 764 767 769 771 773 774 776 779 780 781 783 785 786 788 789 791 792
625 625 627 629 631 634 636 637 640 642 643 645 646 649 653 656 660 664 668 671 674 677 681 685 688 691 693 694 697 702 704 707 709 713 716 720 725 730 735 741 746 750 753 756 758 761 762 764 766 768 770 772 774 776 777 778 780 781 784 785 785 787 790
624 622 622 624 626 631 634 635 636 638 640 641 643 646 648 651 655 659 661 664 667 671 677 680 682 686 688 690 695 698 700 703 706 709 713 717 722 728 734 740 745 748 752 754 756 758 759 761 763 765 767 768 770 771 773 775 777 778 780 781 782 785 788
620 618 618 619 621 624 627 628 630 632 633 636 638 639 642 645 648 651 653 658 663 668 673 675 678 681 684 687 691 693 697 701 704 707 710 715 721 727 732 737 742 746 750 752 753 754 755 758 759 761 762 764 766 768 770 772 773 774 776 778 781 783 784
621 619 618 617 618 620 623 625 627 628 630 632 634 636 639 642 644 647 651 656 661 665 668 671 674 677 680 684 687 690 694 698 700 704 708 713 719 724 728 733 738 742 745 747 748 750 751 753 755 756 758 760 763 765 767 768 769 771 774 776 779 780 782
621 621 619 617 615 614 616 619 621 624 627 629 631 634 636 638 641 644 649 653 658 661 664 667 670 673 676 679 682 685 689 693 697 701 706 711 715 719 723 728 732 737 740 742 744 745 747 749 750 752 754 757 759 761 763 765 766 768 771 774 776 778 780
618 617 616 615 613 610 608 610 613 618 623 626 630 632 633 634 637 640 644 648 653 657 660 664 667 669 672 675 677 680 684 688 693 698 703 707 710 713 717 721 726 730 733 736 738 740 742 744 746 748 750 753 755 757 759 761 762 765 768 771 774 775 778
620 617 613 612 613 611 609 609 610 612 616 620 624 627 628 631 634 637 641 645 648 652 656 660 663 665 668 670 672 675 680 684 688 693 697 700 702 706 710 715 719 722 725 728 731 734 737 739 742 744 746 748 750 753 756 757 759 762 766 769 772 774 776
622 620 616 612 612 612 611 611 611 612 615 618 621 624 626 630 633 637 639 641 644 648 651 654 657 660 663 665 667 671 675 679 683 687 691 694 696 700 704 708 711 715 719 723 726 729 733 735 738 740 742 745 747 750 753 755 757 761 764 767 770 772 774
624 624 621 616 614 611 609 610 612 614 616 617 618 620 623 627 632 636 638 638 641 644 646 648 650 653 655 658 662 667 670 674 678 682 685 688 691 694 698 702 706 710 714 718 721 725 728 731 734 736 739 742 745 748 752 753 756 759 762 765 768 770 772
624 623 623 622 619 614 610 609 610 613 615 616 617 619 621 623 625 628 630 632 634 635 636 638 641 645 648 652 657 662 665 668 672 675 678 682 686 690 694 698 702 705 709 712 716 720 724 727 731 734 736 739 743 746 749 751 753 757 760 763 766 767 770
623 622 622 621 621 618 614 612 612 614 616 617 618 620 623 624 625 626 627 629 630 630 631 634 637 640 643 647 651 656 659 662 666 669 673 677 681 686 690 694 698 701 704 708 711 715 720 724 727 731 734 737 740 743 746 749 752 755 758 760 763 765 768
626 625 623 622 623 622 620 617 616 616 616 616 617 619 620 623 626 628 629 631 631 632 634 637 640 642 644 647 650 652 655 658 661 664 668 672 676 681 685 690 695 699 703 707 711 715 720 724 727 730 732 736 739 741 744 747 750 753 756 758 761 764 766
631 629 627 625 625 624 623 622 620 619 618 616 616 618 619 622 626 628 629 629 630 631 633 635 638 641 645 648 651 652 655 657 660 664 667 671 675 680 685 691 696 702 706 709 712 719 725 729 731 732 732 734 737 740 742 746 749 752 754 757 759 762 764
635 634 630 628 627 625 625 625 623 622 621 618 617 617 618 620 624 628 630 629 629 630 630 631 634 637 640 643 647 650 653 656 659 663 666 670 675 679 685 691 697 702 705 708 712 719 725 727 731 733 733 733 736 739 742 745 748 751 753 755 758 760 763
639 637 634 632 629 627 626 626 625 624 622 621 620 619 617 617 618 621 626 628 630 632 633 634 635 635 636 640 643 646 650 653 657 660 663 666 672 677 682 687 692 698 703 708 715 721 724 727 732 734 732 733 735 738 741 744 747 749 752 754 756 759 761
641 639 637 635 633 630 629 627 626 625 623 622 621 620 619 618 616 616 618 619 622 630 637 640 638 635 633 635 638 641 645 648 652 657 661 664 668 673 679 685 690 697 703 709 715 719 723 730 734 732 730 732 735 738 742 744 746 748 750 752 754 757 759
644 642 640 637 635 633 631 629 628 626 624 623 622 619 618 618 617 616 616 616 618 624 632 636 636 634 634 636 637 637 639 642 646 651 656 661 665 668 673 679 685 692 699 704 707 710 718 727 731 729 729 732 735 739 743 744 744 745 748 750 752 754 756
646 643 641 638 636 635 633 632 630 628 627 626 624 622 620 619 619 619 619 620 622 624 626 629 631 632 636 641 643 642 640 638 640 643 647 653 660 665 669 674 679 686 694 700 701 704 712 721 725 726 728 731 733 736 739 741 741 743 745 748 749 751 753
645 643 640 638 637 636 636 634 633 631 630 629 628 627 626 625 624 624 623 623 623 622 622 625 627 629 632 636 642 649 645 633 627 631 638 644 651 660 667 673 678 685 693 699 701 705 711 718 722 724 726 728 730 733 735 737 739 741 744 747 748 749 751
646 643 641 639 638 638 637 637 635 633 632 632 632 631 631 630 629 629 627 625 623 621 620 622 624 628 631 631 635 645 647 634 626 633 642 647 654 661 667 674 681 688 694 698 701 707 713 718 722 724 725 726 729 732 735 737 739 741 743 745 747 748 750
647 645 644 642 640 640 639 638 637 636 635 635 636 635 635 635 634 633 631 628 626 624 622 622 623 626 631 632 633 638 641 638 639 647 652 654 659 666 670 675 682 690 695 698 701 707 713 718 721 723 724 725 728 731 734 736 738 740 742 744 745 747 748
Wind_Speed
18 19 19 17 18 19 19 20 21 24 30 33 35 38 39 39 40 40 40 42 43 42 43 43 43 44 44 44 43 42 41 41 41 40 39 38 36 35 35 35 34 34 34 33 33 34 33 31 31 31 30 31 31 30 29 27 27 28 28 27 25 23 22
17 17 18 18 18 19 20 21 22 26 30 32 36 38 38 39 40 40 40 42 43 43 44 44 43 43 44 44 43 43 43 42 42 40 38 37 36 36 36 36 35 36 35 35 35 34 33 32 32 32 32 33 33 31 30 29 28 29 29 28 26 24 22
15 16 18 18 18 19 21 21 22 27 31 32 34 37 39 42 43 43 42 41 42 42 42 43 43 43 42 42 42 42 43 43 42 41 38 37 36 36 37 36 36 37 36 36 36 35 34 33 34 34 34 35 35 33 32 30 29 28 28 28 27 25 23
16 17 18 19 20 20 21 20 21 25 31 34 38 40 42 44 44 43 43 42 43 42 42 43 43 43 42 42 42 42 43 44 43 42 39 37 37 37 37 37 37 37 37 37 37 36 35 35 35 35 36 36 36 35 34 33 31 29 28 28 27 26 24
17 17 16 17 19 18 18 19 20 24 30 35 39 42 43 43 41 41 41 42 44 45 45 46 44 43 42 43 43 43 44 45 43 41 39 37 37 37 37 38 38 38 37 38 37 36 36 36 36 37 37 37 37 36 35 35 33 30 29 28 27 27 26
16 16 15 16 17 17 18 20 21 27 33 35 38 39 38 38 38 39 40 41 42 43 44 45 44 43 43 43 44 43 43 43 43 41 39 38 37 38 38 38 39 39 39 38 38 37 37 37 38 39 39 39 38 37 37 37 34 32 30 29 28 29 27
17 17 17 17 17 17 19 20 21 28 34 34 35 35 35 36 38 39 39 40 42 42 42 43 43 44 44 44 44 43 42 43 43 42 40 39 39 39 38 38 39 40 40 39 39 39 39 39 39 40 41 40 39 38 39 38 36 34 32 31 30 29 28
19 18 18 18 18 18 19 19 19 23 28 30 30 32 34 36 37 37 38 39 41 42 42 44 44 45 45 44 44 44 43 43 43 42 40 39 39 39 39 38 39 40 40 40 40 40 40 41 41 41 42 41 40 40 40 39 38 36 34 34 32 31 30
20 19 19 19 19 18 18 18 18 20 24 27 29 31 33 35 36 37 39 40 40 41 43 44 44 45 45 44 44 44 44 43 42 41 40 40 40 40 40 39 39 40 41 41 41 40 41 42 42 43 42 42 41 41 41 40 39 38 37 36 35 33 31
17 18 20 20 19 17 17 17 16 16 18 20 25 29 32 34 35 37 38 39 40 42 43 43 43 44 44 44 43 43 43 43 42 41 40 40 41 41 41 40 40 41 42 42 41 41 41 41 42 43 43 43 42 42 42 42 40 39 38 36 35 33 31
17 19 20 19 18 16 16 16 14 14 14 16 22 27 30 33 34 35 37 38 39 40 40 41 42 43 43 43 43 42 43 42 42 41 41 41 42 42 42 41 40 41 42 41 41 42 41 40 40 42 43 44 44 43 43 42 41 40 38 37 34 32 32
17 18 17 18 18 17 16 14 14 16 15 16 22 26 29 32 34 35 36 38 38 37 38 40 41 42 42 42 41 41 42 43 42 42 42 43 43 42 42 41 41 42 42 42 42 42 41 41 41 42 44 45 44 44 43 42 42 41 39 37 35 32 32
15 16 16 17 17 15 15 14 15 17 16 17 22 27 29 32 34 35 35 36 37 37 37 39 39 40 40 41 41 41 42 43 44 44 43 44 44 43 42 42 42 42 42 41 41 41 41 42 43 43 43 43 43 43 43 42 42 41 40 38 35 33 33
12 14 16 16 16 16 16 15 16 17 16 17 21 26 29 31 34 35 35 36 36 36 37 38 39 39 40 40 41 41 43 45 45 44 44 43 43 42 42 42 42 41 41 40 40 40 41 42 43 42 41 41 41 41 42 41 41 41 40 38 36 35 35
12 13 15 16 16 16 16 16 16 17 17 17 20 23 26 28 31 33 34 35 37 37 39 40 40 40 40 40 41 43 44 44 43 43 43 42 41 42 42 42 41 40 38 38 39 39 39 40 40 40 39 39 39 39 40 41 41 41 41 39 38 37 37
14 15 16 15 16 16 17 18 18 17 17 16 17 20 23 25 28 31 33 34 36 38 40 41 40 40 39 41 43 44 43 42 42 42 41 41 42 42 42 40 39 38 37 37 38 37 36 36 37 37 38 39 39 38 38 39 40 41 42 41 40 39 38
12 13 13 12 13 14 15 16 15 15 17 17 17 21 25 27 30 32 33 34 36 38 40 41 41 40 41 43 44 43 41 41 41 40 41 42 41 41 40 38 37 36 35 35 35 35 35 35 36 37 38 39 38 37 37 38 39 40 42 42 41 40 39
11 12 12 11 10 10 10 11 12 13 15 16 18 23 26 27 29 30 31 34 37 40 40 40 40 40 42 43 42 41 41 41 40 40 40 40 40 39 37 35 34 33 33 33 34 35 35 35 36 37 37 37 37 38 38 38 38 40 41 42 43 41 39
10 11 12 13 13 12 12 11 12 14 15 15 19 25 30 31 31 31 35 39 41 40 39 39 40 41 41 41 40 41 42 41 39 39 39 39 39 37 34 32 32 32 32 33 34 35 35 35 35 36 37 37 38 39 38 37 38 40 41 43 44 41 40
11 13 13 13 14 14 14 13 13 15 18 22 27 33 36 37 37 38 41 41 40 39 38 39 39 39 40 39 39 40 41 39 38 38 38 37 35 33 32 32 31 31 31 32 34 36 36 35 35 37 38 39 39 39 38 37 39 41 42 43 43 41 42
5 7 10 12 13 13 12 12 13 13 16 24 30 33 33 34 35 36 36 36 36 37 38 39 38 38 38 38 38 39 39 38 38 37 35 34 32 32 32 32 31 31 32 34 35 36 37 37 38 38 38 39 39 38 37 38 39 40 40 41 41 41 41
4 5 7 10 13 15 15 14 14 14 17 23 28 30 30 33 35 34 33 34 35 36 38 38 37 37 37 36 38 39 39 39 38 36 33 32 32 33 33 33 33 34 35 35 35 36 37 38 39 39 38 38 38 38 36 36 37 38 39 39 40 41 39
5 6 7 8 10 13 18 21 22 22 24 25 26 27 30 33 35 34 33 34 34 35 37 36 35 35 36 36 38 39 40 40 38 35 33 33 34 35 35 35 36 37 38 36 35 36 38 39 39 39 39 38 38 38 36 34 35 36 37 38 40 41 39
5 6 5 6 9 10 13 19 25 29 32 30 28 32 34 35 35 33 30 31 32 34 34 33 34 35 35 37 39 39 40 40 39 36 34 35 37 37 37 37 39 40 41 39 38 38 39 40 39 38 38 38 39 39 36 33 33 34 35 37 39 41 40
7 8 8 6 5 7 12 17 21 24 25 23 25 31 33 31 30 28 26 28 32 32 31 32 35 37 37 39 40 40 40 40 40 38 37 38 39 38 39 40 41 41 41 40 39 38 38 38 36 36 37 38 39 37 34 32 31 31 32 35 37 39 40
6 6 7 9 12 12 11 17 18 16 16 19 25 32 34 32 29 25 26 29 30 29 30 34 39 42 44 43 41 39 40 40 40 40 39 39 40 40 41 41 40 39 40 39 39 38 37 37 36 35 36 36 35 34 32 31 29 29 31 32 33 36 39
4 5 5 7 12 16 12 10 12 12 12 13 18 23 26 30 30 29 31 32 29 31 38 43 45 46 45 43 39 38 40 40 42 42 42 41 40 39 40 40 39 39 40 39 38 37 35 35 34 33 33 32 31 31 30 30 29 28 29 30 31 34 36
8 8 10 10 13 17 14 6 2 1 1 2 1 5 10 16 19 20 23 23 23 30 37 40 42 45 44 41 38 38 40 40 42 42 41 40 39 38 38 38 39 40 41 39 38 37 35 34 32 30 28 28 28 29 29 28 27 26 28 30 30 31 35
9 9 10 11 13 15 12 8 8 10 10 10 7 5 4 8 9 8 8 7 10 17 21 22 27 32 33 33 33 34 37 39 40 40 39 39 39 39 38 38 38 37 36 34 32 28 26 26 26 26 25 25 25 26 27 26 24 24 26 29 29 31 35
9 9 9 8 11 13 10 6 6 8 11 12 12 11 9 9 9 7 5 3 6 13 16 18 21 24 24 25 25 27 29 31 33 33 32 34 36 36 34 32 29 26 25 24 23 20 18 20 22 23 24 24 23 25 25 25 24 23 24 26 29 31 34
9 9 9 9 11 13 11 7 6 8 9 10 11 13 13 13 14 13 9 6 5 10 15 18 20 22 22 23 23 23 24 26 28 28 29 30 32 31 28 26 24 24 24 25 25 24 24 25 24 22 23 22 22 24 26 24 23 23 22 24 27 30 32
7 8 8 8 11 13 11 9 8 9 10 10 9 10 12 14 15 14 10 8 7 6 10 16 21 23 24 24 24 26 27 27 26 27 29 31 31 30 31 32 31 30 27 25 24 24 22 21 21 21 21 22 22 24 26 25 24 23 23 25 28 29 30
7 8 8 9 10 10 9 8 7 7 8 8 8 8 9 11 14 17 17 14 10 9 13 18 23 26 29 31 32 32 33 34 34 33 33 34 36 35 34 33 31 28 25 25 25 22 18 18 21 22 21 22 23 25 25 25 24 24 24 26 28 29 30
6 7 8 11 12 10 8 6 5 5 5 6 8 10 12 13 13 15 17 18 21 24 25 24 22 21 21 25 30 34 35 36 38 38 36 36 37 36 33 31 30 30 31 32 31 28 25 24 24 24 24 25 25 25 24 24 26 26 26 26 27 27 30
5 6 7 9 11 11 8 5 4 5 6 7 8 11 14 16 16 18 21 24 28 31 30 26 24 22 18 14 15 21 31 38 40 39 39 39 37 33 30 31 34 34 32 31 32 33 33 30 27 27 29 30 30 29 27 27 28 28 27 27 27 27 28
6 6 8 10 10 10 9 7 5 6 7 7 7 9 12 15 17 19 23 26 29 31 30 28 26 25 23 18 9 6 15 28 36 36 36 38 37 32 28 27 29 32 29 27 28 31 33 32 30 31 32 32 33 34 32 29 28 28 27 26 26 27 27
8 7 9 11 10 9 9 9 7 8 8 7 5 6 7 9 11 14 19 23 27 30 31 30 26 21 19 22 19 8 4 11 25 29 29 31 32 33 32 29 27 27 29 29 28 28 29 29 29 30 31 32 33 33 30 25 25 26 27 26 25 25 26
11 11 11 11 11 9 9 10 9 9 10 10 8 4 2 4 6 9 13 18 22 25 27 27 24 20 18 21 25 22 17 19 22 22 26 30 32 33 34 33 30 26 25 28 29 29 28 27 26 27 29 30 31 30 27 25 25 25 25 25 24 23 24
Wind_Direction
186 188 190 190 191 191 191 191 192 194 194 194 195 196 195 194 194 193 193 194 194 195 195 195 196 197 199 202 204 207 210 212 213 211 210 209 208 207 207 208 211 213 212 210 209 209 209 209 208 208 207 204 203 202 204 207 207 205 206 209 209 205 205
187 191 191 191 192 192 193 193 193 194 195 195 196 195 195 195 194 193 193 194 194 195 194 195 196 197 199 202 204 206 209 213 214 214 212 210 210 209 209 211 212 212 212 211 210 209 209 208 207 207 206 204 204 204 206 207 208 206 206 208 207 204 204
188 192 192 191 192 193 193 193 194 195 195 195 195 195 196 196 195 194 193 192 193 194 194 195 196 197 199 201 204 206 208 212 214 214 213 210 209 210 211 212 212 212 211 210 210 209 208 207 206 206 206 204 204 205 207 207 206 205 205 205 205 203 203
193 192 192 193 192 194 194 192 194 196 196 195 195 195 197 197 196 194 194 192 192 192 194 196 197 198 199 201 203 206 208 211 213 214 213 211 209 210 209 210 211 210 209 209 209 209 208 206 205 205 205 205 205 206 208 208 207 208 206 204 203 204 204
198 192 190 194 195 195 194 193 194 195 196 197 196 197 197 196 194 193 194 193 192 193 194 196 197 197 199 201 203 206 208 210 212 213 213 212 210 210 209 209 209 209 209 208 208 208 207 205 203 203 204 206 206 207 208 209 208 208 207 203 202 203 204
200 193 191 194 196 197 194 194 195 195 196 197 196 197 196 193 192 192 193 193 193 194 195 195 196 197 199 201 204 207 208 209 211 212 213 212 211 211 210 209 209 209 208 207 206 207 206 204 203 203 204 206 207 207 208 207 207 206 205 204 203 202 203
198 195 194 194 194 196 197 196 196 196 197 196 193 193 192 191 191 192 192 192 193 193 193 194 195 196 198 201 203 206 207 208 210 211 211 212 212 212 212 211 210 210 208 207 207 207 205 205 204 204 205 205 205 205 205 205 205 205 205 204 203 204 204
199 195 195 195 193 195 196 195 195 195 195 192 190 190 189 190 191 191 191 192 193 193 194 194 195 196 198 200 202 205 207 208 209 210 210 211 212 213 213 212 211 209 208 208 208 207 206 206 205 205 205 204 204 203 203 205 207 207 206 205 205 207 207
200 197 196 197 195 194 195 194 193 191 189 188 188 187 187 188 190 191 192 192 192 194 195 194 195 196 198 200 201 204 206 207 208 208 208 209 211 213 213 213 212 210 209 209 208 207 207 207 206 205 205 204 204 204 204 207 209 209 208 208 209 210 211
200 200 202 202 198 194 194 192 189 185 184 186 187 186 186 188 190 192 193 193 194 196 196 194 194 196 197 199 201 203 204 206 206 207 207 209 211 213 213 213 212 211 211 210 209 208 207 207 206 205 204 205 205 205 205 207 209 209 209 210 212 213 212
199 203 205 204 199 196 193 186 182 182 183 186 186 185 185 187 190 192 193 194 195 196 195 194 195 196 197 199 200 201 203 205 205 206 207 209 211 213 213 213 212 212 212 210 209 208 207 205 205 205 205 206 206 206 206 207 208 208 209 211 214 214 213
198 202 205 203 198 196 192 184 181 184 185 186 186 184 184 186 189 192 194 195 196 195 194 195 196 197 198 199 200 201 202 203 204 205 207 209 212 213 213 213 212 212 212 210 209 208 207 205 205 206 206 207 207 207 207 207 207 208 209 211 212 213 213
198 197 200 201 199 194 188 182 182 185 185 185 186 185 184 186 189 192 194 195 195 194 194 195 197 197 198 199 200 201 202 203 204 205 207 209 211 213 213 213 213 212 212 211 209 208 207 206 207 207 208 208 207 207 207 206 206 208 210 210 211 212 212
203 205 203 200 197 192 185 182 184 185 185 185 186 187 186 187 190 191 192 193 193 193 194 195 197 198 199 200 201 203 204 204 205 206 207 209 211 213 214 214 213 213 212 210 209 209 208 207 207 208 208 208 208 207 207 206 206 207 209 209 210 211 212
193 208 211 205 200 192 185 184 185 184 185 184 185 186 186 188 191 191 192 193 192 193 195 195 197 199 199 200 203 205 205 205 205 206 207 208 210 212 214 215 214 213 212 210 210 210 209 209 208 207 207 208 209 208 207 207 207 208 208 208 209 211 212
186 199 206 205 202 195 188 188 187 184 183 182 182 184 186 188 190 191 193 193 192 194 195 195 197 199 200 202 205 207 206 205 205 206 207 207 209 212 213 214 214 213 212 211 210 210 209 209 208 208 208 209 210 209 208 208 208 209 210 210 210 211 211
179 188 195 198 199 197 193 189 186 182 179 180 183 184 185 188 190 192 193 192 193 196 196 196 197 199 201 204 207 207 205 205 205 205 206 208 210 211 212 213 213 213 212 211 210 210 209 208 208 209 210 211 211 210 209 210 209 210 210 212 213 212 210
175 175 174 177 183 188 191 186 179 180 181 183 185 184 186 188 188 191 192 193 196 198 197 197 198 200 203 206 206 205 206 206 205 205 207 208 209 211 211 211 212 211 211 210 210 210 209 209 209 210 211 212 212 212 212 211 211 211 211 213 214 212 210
177 175 171 171 173 176 182 181 176 180 184 185 185 187 188 188 187 191 194 195 197 197 196 198 200 202 205 206 205 205 207 206 205 205 206 207 208 209 208 209 210 210 209 209 210 210 209 209 209 210 212 212 213 214 214 213 213 213 213 214 214 211 211
184 182 178 176 177 180 182 182 183 185 187 189 189 190 191 191 191 195 196 196 196 195 195 199 201 203 205 205 204 205 207 207 206 206 206 206 205 204 204 206 207 207 208 209 210 209 208 208 209 211 212 213 215 215 215 215 215 215 215 215 213 210 211
219 198 186 180 178 181 184 186 189 189 191 193 193 194 193 194 195 197 197 196 194 194 197 200 202 203 205 205 204 205 206 206 207 207 205 203 200 199 201 203 203 204 207 209 210 209 208 208 209 211 213 214 215 215 216 217 217 216 215 213 211 209 208
280 243 213 199 188 182 184 190 192 192 197 199 197 196 195 196 197 196 196 196 195 196 199 201 203 204 204 204 204 204 205 206 207 206 203 198 196 196 197 198 199 202 206 209 210 209 209 209 211 212 213 213 214 215 215 217 217 216 214 211 209 206 203
291 266 232 220 211 198 193 192 190 191 199 204 202 200 199 200 199 196 195 195 195 197 200 201 204 205 204 205 205 205 204 204 205 204 199 195 194 194 194 194 197 201 205 206 206 206 208 210 211 212 212 212 213 213 213 215 216 215 213 209 207 203 199
344 328 289 249 239 231 213 199 194 195 199 202 203 203 203 202 200 197 195 194 194 197 199 201 205 206 206 207 207 205 204 204 203 202 197 194 194 193 192 193 197 201 203 204 203 204 207 209 209 211 211 211 213 213 211 212 214 214 211 209 207 204 201
19 9 350 331 300 265 238 217 208 205 201 198 201 205 206 204 201 198 197 196 196 197 198 201 204 206 208 210 209 206 204 203 202 201 197 196 195 193 192 194 198 200 201 202 203 203 205 206 206 207 209 212 213 211 209 210 212 212 210 207 206 207 207
15 12 358 353 351 331 274 233 219 212 204 203 206 205 202 199 198 200 202 201 198 198 200 202 205 207 209 210 209 206 204 202 201 201 199 198 196 193 193 195 197 197 198 199 201 201 202 202 203 204 207 209 210 208 206 208 210 209 208 206 206 210 211
14 20 11 357 359 356 331 260 229 218 213 215 216 212 206 200 197 198 202 202 198 199 203 204 204 207 210 210 207 205 204 202 201 201 200 199 196 193 193 195 195 195 195 195 197 198 198 199 199 201 203 204 204 204 205 209 211 207 205 208 212 215 214
13 14 7 4 8 9 7 9 37 65 28 14 242 224 216 210 208 208 207 206 207 209 208 206 206 207 208 207 205 203 203 202 201 201 200 198 195 191 191 193 194 194 193 193 193 193 193 194 193 194 195 197 199 201 204 209 212 208 207 210 215 216 214
9 3 360 4 8 8 12 37 59 63 64 65 72 84 134 177 194 207 207 209 224 222 215 211 212 212 211 208 204 202 202 202 200 199 197 194 192 189 188 190 192 191 190 189 186 182 182 185 185 184 184 186 191 195 199 202 205 207 209 210 212 214 213
9 5 357 357 3 7 17 44 63 66 75 82 87 87 91 103 106 102 106 132 199 208 204 203 207 210 211 209 205 202 201 198 197 197 194 190 188 186 183 182 180 178 178 170 158 156 170 183 186 184 181 178 178 183 189 193 197 203 207 207 209 213 212
10 6 359 360 4 9 21 48 67 67 68 72 92 112 119 113 99 83 64 65 130 175 183 185 186 187 188 190 190 188 186 184 184 184 182 180 180 175 167 163 157 153 152 150 152 169 186 190 189 187 180 172 170 174 181 189 195 199 201 204 209 212 210
9 4 3 7 8 12 26 44 58 70 70 60 65 98 123 134 132 123 115 107 105 131 162 168 166 164 164 167 169 169 167 164 162 163 164 164 162 158 152 149 145 143 144 154 171 185 189 185 185 184 174 166 165 171 179 187 193 195 198 203 208 208 204
4 3 6 8 12 23 41 51 51 62 72 69 70 85 106 129 143 150 161 172 183 185 177 170 166 162 160 162 163 162 162 158 152 149 147 144 142 141 140 142 146 150 159 172 179 178 177 184 186 178 165 161 164 171 178 184 189 191 194 200 205 204 197
359 2 7 8 14 28 48 65 75 78 76 77 88 97 104 112 127 144 157 164 169 169 163 156 153 150 151 157 161 160 158 155 149 144 140 137 139 141 144 153 164 171 177 182 181 175 176 184 182 171 164 163 164 168 175 182 185 186 187 191 196 196 192
14 17 13 7 12 23 35 53 80 90 94 107 114 116 119 124 132 143 149 150 153 154 148 140 136 133 130 136 149 157 158 155 151 146 142 141 144 149 154 163 170 172 176 182 183 179 178 179 174 169 168 167 167 171 177 182 186 186 185 185 187 186 186
21 22 17 17 21 28 36 48 65 69 76 97 116 119 125 134 140 146 149 151 152 147 140 136 135 136 139 139 141 202 188 161 147 141 139 139 140 139 139 146 159 167 170 171 171 175 179 179 177 176 175 174 176 181 186 186 186 187 187 186 185 184 185
21 21 19 22 29 33 35 41 50 52 55 73 104 115 118 126 137 145 146 146 147 144 140 140 138 137 141 142 140 160 201 119 113 116 121 125 126 125 121 120 130 147 157 159 160 166 173 179 184 185 184 183 183 187 191 190 186 186 188 189 187 186 187
25 28 27 26 29 30 29 29 29 31 38 44 45 49 93 112 124 144 148 146 146 144 141 141 139 133 133 135 134 135 126 107 105 116 124 124 126 127 126 123 120 124 137 149 158 165 172 179 185 187 188 189 188 189 192 192 188 188 189 188 188 188 187